Showing default

GAMA-ALPHA, 55084

Orbit data source: Space-Track

GAMA-ALPHA, 55084 is a Lithuanian payload satellite in SSO that was launched on Tue, 03 Jan 2023 UTC via an FALCON 9 launch vehicle from the Air Force Eastern Test Range (AFETR). Payload-class satellites include a variety of spacecraft equipped with specific instruments for various scientific and technological missions. These include communications satellites like Starlink; space stations such as the ISS; scientific satellites like the Hubble; Earth observation satellites from companies like Planet Labs, Umbra, and HawkEye 360; GPS; miniature CubeSats for education and research; and military/defense satellites.

Not visible in the next 10 days
Identifier
55084, 2023-001CD
Orbit
SSO
Country
Flag of LTLT / LTU
Related business
Manufacturer
NanoAvionics
Mission
Operational Commercial Technology
Bus & Motor
CUBESAT 6U, Unknown motor
Mass
~10 kg wet, ~10 kg dry
Launch date (UTC)
2023-01-03 (3 years ago)
Launch vehicle
FALCON 9
Launch site
Air Force Eastern Test Range (AFETR)
Object type
Payload
Rocket body
Debris
Shape & HBR
Box + 1 Sail, 4.3 m
Radar Cross Section
0.080 m², Small (<0.1 m²)

Expand to show TLE details & history
Last TLE update: 10 hours ago

TLE from 10 hours ago
0 GAMA-ALPHA
1 55084U 23001CD  25345.20376687  .00296435  00000-0  13466-2 0  9997
2 55084  97.3480  61.0039 0003107 325.9432  34.1638 15.83101522164388
Epoch: 2025-12-11T04:53Z
TLE epoch observation values (Epoch: 2025-12-11T04:53:25.457Z)
Latitude
0.00002°
Longitude
-92.51528°
Altitude
323.13 km
Speed
7.715 km/s
True Right ascension
04h 04m 00s
True Declination
0° 00' 00"
Sunlit
Object was in full shadow at epoch
Visualization orbit readout
Latitude
Unknown
Longitude
Unknown
Altitude
Unknown
Speed
Unknown
Apparent Right ascension
Unknown
Apparent Declination
Unknown
Sunlit
N/A
Visualization observer readout
Local Sidereal Time
13:21:12
Azimuth
Unknown
Elevation
Unknown
Doppler factor
Unknown
Orbital elements
Apogee altitude
320.636 km
Perigee altitude
316.475 km
Semi-major axis
6,696.692 km
Eccentricity
0.00031
Inclination
97.348°
RAAN
61.0039°
Arg. of periapsis
325.9432°
True anomaly
34.1838°
Mean anomaly
34.1638°
Eccentric anomaly
34.1738°
Mean motion
3.96052 °/min
Orbital period
90.9 mins
BSTAR
0.0013466
Loading maneuver chart data...
Computing Atmospheric mass density...
Loading historical data...
Loading historical data...
Loading historical data...
Loading historical data...
Loading historical data...
Loading historical data...
Loading historical data...

Documentation

Showing up to 5 results
|